Weather History for New York JFK, NY

Change the Weather History Date:

Tuesday, May 1, 2012

  Actual Average Record
Temperature  
Mean Temperature 61 °F 56 °F  
Max Temperature 70 °F 64 °F 81 °F (2001)
Min Temperature 52 °F 48 °F 38 °F (2008)
Degree Days  
Heating Degree Days 4 9  
Month to date heating degree days 4 9  
Since 1 July heating degree days 3755 4660  
Cooling Degree Days 0 0  
Month to date cooling degree days 0 0  
Year to date cooling degree days 6 3  
Growing Degree Days 10 (Base 50)    
Moisture  
Dew Point 51 °F    
Average Humidity 72    
Maximum Humidity 87    
Minimum Humidity 57    
Precipitation  
Precipitation 0.94 in 0.11 in 0.94 in (2012)
Month to date precipitation 0.94 0.11  
Year to date precipitation 8.49 13.51  
Snow  
Snow 0.00 in 0.00 in - ()
Month to date snowfall 0.0 0.0  
Since 1 July snowfall 3.7 23.8  
Snow Depth 0.00 in    
Sea Level Pressure  
Sea Level Pressure 30.04 in    
Wind  
Wind Speed 11 mph (SE)    
Max Wind Speed 20 mph    
Max Gust Speed 25 mph    
Visibility 8 miles    
Events Rain , Thunderstorm    
T = Trace of Precipitation, MM = Missing Value Source: NWS Daily Summary

Daily Weather History Graph

Daily Weather History Graph

Search for Another Location

Airport:

Trip Planner

Search our weather history database for the weather conditions in past years. The results will help you decide how hot, cold, wet, or windy it might be!

Date:

Astronomy

May. 01, 2012 Rise Set
Actual Time 5:53 AM EDT 7:51 PM EDT
Civil Twilight 5:23 AM EDT 8:21 PM EDT
Nautical Twilight 4:47 AM EDT 8:57 PM EDT
Astronomical Twilight 4:08 AM EDT 9:37 PM EDT
Moon 2:50 PM EDT (5/1) 2:50 AM EDT (5/1)
Length of Visible Light 14h 57m
Length of Day
13h 58m
Waxing Gibbous, 73% of the Moon is Illuminated
May 1
Waxing Gibbous
May 5
Full
May 12
Last Quarter
May 20
New
May 28
First Quarter

Hourly Weather History & Observations

Time (EDT) Temp. Dew Point Humidity Pressure Visibility Wind Dir Wind Speed Gust Speed Precip Events Conditions
12:51 AM 53.1 °F 44.1 °F 71% 30.21 in 10.0 mi SSE 12.7 mph - N/A   Overcast
1:51 AM 53.6 °F 44.6 °F 72% 30.17 in 10.0 mi SSE 16.1 mph - N/A   Overcast
2:51 AM 53.1 °F 45.0 °F 74% 30.14 in 10.0 mi SSE 18.4 mph - N/A   Overcast
3:36 AM 53.6 °F 44.6 °F 72% 30.13 in 10.0 mi SSE 17.3 mph - N/A   Overcast
3:51 AM 54.0 °F 45.0 °F 72% 30.12 in 10.0 mi SSE 16.1 mph - N/A   Overcast
4:51 AM 53.1 °F 46.0 °F 77% 30.10 in 10.0 mi SE 11.5 mph - 0.00 in   Overcast
5:51 AM 54.0 °F 46.9 °F 77% 30.06 in 4.0 mi SSE 13.8 mph 19.6 mph 0.02 in Rain Heavy Rain
6:09 AM 53.6 °F 48.2 °F 82% 30.08 in 9.0 mi Calm Calm - 0.06 in Rain , Thunderstorm Light Thunderstorms and Rain
6:22 AM 53.6 °F 48.2 °F 82% 30.07 in 2.0 mi East 3.5 mph - 0.11 in Rain , Thunderstorm Heavy Thunderstorms and Rain
6:35 AM 51.8 °F 48.2 °F 88% 30.06 in 2.0 mi ESE 5.8 mph - 0.21 in Rain , Thunderstorm Thunderstorms and Rain
6:51 AM 52.0 °F 48.9 °F 89% 30.06 in 2.0 mi SE 9.2 mph - 0.45 in Rain , Thunderstorm Heavy Thunderstorms and Rain
7:08 AM 53.6 °F 50.0 °F 88% 30.06 in 2.0 mi ESE 8.1 mph - 0.20 in Rain , Thunderstorm Heavy Thunderstorms and Rain
7:22 AM 53.6 °F 50.0 °F 88% 30.05 in 2.0 mi SE 9.2 mph - 0.30 in Rain Rain
7:38 AM 53.6 °F 51.8 °F 94% 30.04 in 4.0 mi SE 11.5 mph - 0.43 in Rain Light Rain
7:51 AM 54.0 °F 51.1 °F 90% 30.04 in 6.0 mi SE 10.4 mph - 0.43 in Rain Light Rain
8:51 AM 55.0 °F 52.0 °F 89% 30.01 in 6.0 mi SE 10.4 mph - 0.04 in Rain Light Rain
9:10 AM 55.4 °F 51.8 °F 88% 30.01 in 7.0 mi ESE 9.2 mph - N/A   Overcast
9:46 AM 55.4 °F 53.6 °F 94% 30.01 in 5.0 mi SSE 8.1 mph - 0.00 in   Light Drizzle
9:51 AM 55.0 °F 53.1 °F 93% 30.01 in 4.0 mi SSE 9.2 mph - 0.00 in   Light Drizzle
9:59 AM 55.4 °F 53.6 °F 94% 30.00 in 2.5 mi South 8.1 mph - 0.00 in   Light Drizzle
10:51 AM 57.0 °F 55.0 °F 93% 29.99 in 5.0 mi SSW 6.9 mph - 0.00 in   Overcast
11:51 AM 59.0 °F 55.0 °F 87% 29.99 in 5.0 mi WSW 8.1 mph - N/A   Overcast
12:32 PM 60.8 °F 55.4 °F 82% 29.98 in 7.0 mi WSW 8.1 mph - N/A   Overcast
12:51 PM 62.1 °F 57.0 °F 84% 29.97 in 8.0 mi WSW 9.2 mph - N/A   Mostly Cloudy
1:18 PM 62.6 °F 55.4 °F 77% 29.98 in 8.0 mi West 8.1 mph - N/A   Mostly Cloudy
1:51 PM 66.0 °F 55.9 °F 70% 29.98 in 9.0 mi WNW 11.5 mph 17.3 mph N/A   Mostly Cloudy
2:51 PM 66.9 °F 54.0 °F 63% 29.98 in 10.0 mi NW 11.5 mph - N/A   Mostly Cloudy
3:06 PM 69.8 °F 55.4 °F 60% 29.98 in 10.0 mi WNW 15.0 mph - N/A   Scattered Clouds
3:51 PM 68.0 °F 54.0 °F 61% 29.99 in 10.0 mi North 13.8 mph - N/A   Scattered Clouds
4:51 PM 69.1 °F 54.0 °F 58% 29.99 in 10.0 mi North 13.8 mph 19.6 mph N/A   Scattered Clouds
5:51 PM 66.0 °F 52.0 °F 60% 30.01 in 10.0 mi NNE 10.4 mph - N/A   Scattered Clouds
6:51 PM 66.9 °F 52.0 °F 59% 30.02 in 10.0 mi NNE 5.8 mph - N/A   Scattered Clouds
7:51 PM 63.0 °F 52.0 °F 67% 30.02 in 10.0 mi ENE 6.9 mph - N/A   Scattered Clouds
8:51 PM 62.1 °F 52.0 °F 70% 30.03 in 10.0 mi NE 8.1 mph - N/A   Mostly Cloudy
9:51 PM 60.1 °F 52.0 °F 75% 30.06 in 10.0 mi East 5.8 mph - N/A   Mostly Cloudy
10:51 PM 57.0 °F 51.1 °F 81% 30.08 in 10.0 mi ENE 10.4 mph - N/A   Mostly Cloudy
11:51 PM 55.0 °F 48.9 °F 80% 30.10 in 10.0 mi ENE 10.4 mph - N/A   Scattered Clouds